DW2150 Weather Reports


time (UTC)temp
C
wind
direction
speed
KPH
gust
KPH
rain 1hr
cm
rain 24hr
cm
rain mn
cm
humidity
%
barometer
mb
20260902214843 33 153 1.6 6.4 0.00 0.00 0.00 75 1012.5
20260902214340 33 132 1.6 6.4 0.00 0.00 0.00 76 1012.5
20260902213837 33 140 1.6 6.4 0.00 0.00 0.00 75 1012.5
20260902213334 33 119 1.6 6.4 0.00 0.00 0.00 75 1012.5
20260902212831 33 301 1.6 4.8 0.00 0.00 0.00 76 1012.5
20260902212327 33 300 1.6 4.8 0.00 0.00 0.00 76 1012.5
20260902211825 33 257 1.6 6.4 0.00 0.00 0.00 76 1012.5
20260902211322 33 169 1.6 6.4 0.00 0.00 0.00 75 1012.9
20260902210800 33 219 1.6 6.4 0.00 0.00 0.00 75 1012.9
20260902210219 33 191 1.6 6.4 0.00 0.00 0.00 75 1012.9
20260902205716 33 189 1.6 6.4 0.00 0.00 0.00 74 1012.9
20260902205213 34 119 3.2 6.4 0.00 0.00 0.00 74 1012.9
20260902204710 34 168 1.6 4.8 0.00 0.00 0.00 74 1012.9
20260902204207 35 291 3.2 6.4 0.00 0.00 0.00 73 1012.9
20260902203704 35 169 1.6 6.4 0.00 0.00 0.00 73 1012.9
20260902203201 35 161 3.2 6.4 0.00 0.00 0.00 73 1012.9
20260902202658 35 40 1.6 4.8 0.00 0.00 0.00 72 1012.9
20260902202136 36 358 3.2 4.8 0.00 0.00 0.00 70 1012.9
20260902201633 36 319 0.0 8.0 0.00 0.00 0.00 68 1013.2
20260902201130 35 314 1.6 8.0 0.00 0.00 0.00 66 1013.2
20260902200627 35 279 1.6 8.0 0.00 0.00 0.00 69 1013.2
20260902200124 35 273 3.2 8.0 0.00 0.00 0.00 71 1013.5
20260902195621 35 296 1.6 6.4 0.00 0.00 0.00 71 1013.5
20260902195118 35 279 1.6 3.2 0.00 0.00 0.00 72 1013.5
20260902194615 35 258 1.6 3.2 0.00 0.00 0.00 72 1013.5
20260902194111 35 254 1.6 4.8 0.00 0.00 0.00 72 1013.5
20260902193538 35 254 1.6 4.8 0.00 0.00 0.00 71 1013.5
20260902193035 35 254 1.6 6.4 0.00 0.00 0.00 71 1013.9
20260902192531 35 254 1.6 6.4 0.00 0.00 0.00 71 1013.9
20260902192010 35 253 3.2 9.7 0.00 0.00 0.00 70 1013.9
20260902191448 35 252 1.6 9.7 0.00 0.00 0.00 69 1013.9
20260902190926 35 257 1.6 9.7 0.00 0.00 0.00 68 1013.9
20260902190424 36 246 3.2 8.0 0.00 0.00 0.00 68 1013.9
20260902185902 36 267 1.6 6.4 0.00 0.03 0.00 67 1013.9
20260902185400 36 157 0.0 14.5 0.00 0.03 0.00 67 1013.9
20260902184857 36 261 3.2 14.5 0.00 0.03 0.00 66 1013.9
20260902184316 36 257 1.6 14.5 0.00 0.03 0.00 68 1013.9
20260902183811 36 245 4.8 14.5 0.00 0.03 0.00 68 1014.2
20260902183308 36 253 3.2 12.9 0.00 0.03 0.00 69 1014.2
20260902182805 36 245 4.8 12.9 0.00 0.03 0.00 70 1014.2
20260902182305 35 253 4.8 12.9 0.00 0.03 0.00 69 1014.2
20260902181758 35 248 6.4 12.9 0.00 0.03 0.00 69 1014.2
20260902181245 35 248 1.6 12.9 0.00 0.03 0.00 72 1014.6
20260902180729 35 250 4.8 12.9 0.00 0.03 0.00 72 1014.6
20260902180155 34 152 3.2 16.1 0.00 0.03 0.00 74 1014.6
20260902175610 34 258 3.2 16.1 0.00 0.03 0.00 73 1014.9
20260902175107 34 253 3.2 16.1 0.00 0.03 0.00 74 1014.9
20260902174533 34 239 6.4 16.1 0.00 0.03 0.00 72 1014.9
20260902174030 34 281 1.6 12.9 0.00 0.03 0.00 74 1015.2
20260902173527 34 249 4.8 11.3 0.00 0.03 0.00 73 1015.2
20260902173023 34 247 3.2 11.3 0.00 0.03 0.00 75 1015.2
20260902172521 33 265 3.2 9.7 0.00 0.03 0.00 76 1015.2
20260902171956 33 249 4.8 9.7 0.00 0.03 0.00 77 1015.2
20260902171434 33 266 3.2 22.5 0.00 0.03 0.00 76 1015.2
20260902170917 33 349 3.2 22.5 0.00 0.03 0.00 76 1015.2
20260902170358 33 94 3.2 22.5 0.00 0.03 0.00 79 1015.6
20260902165824 32 250 4.8 17.7 0.00 0.03 0.00 80 1015.6
20260902165321 32 250 1.6 17.7 0.00 0.03 0.00 81 1015.6
20260902164818 32 243 6.4 17.7 0.00 0.03 0.00 80 1015.6
20260902164243 32 249 6.4 17.7 0.00 0.03 0.00 81 1015.9
20260902163740 32 253 4.8 12.9 0.00 0.03 0.00 82 1015.9
20260902163237 32 262 3.2 12.9 0.00 0.03 0.00 82 1015.9
20260902162715 31 261 4.8 12.9 0.00 0.03 0.00 83 1015.9
20260902162212 32 16 3.2 12.9 0.00 0.03 0.00 82 1015.9
20260902161709 32 263 3.2 16.1 0.00 0.03 0.00 82 1015.9
20260902161205 32 251 4.8 16.1 0.00 0.03 0.00 82 1015.9
20260902160701 32 245 8.0 16.1 0.00 0.03 0.00 82 1015.9
20260902160139 31 260 4.8 8.0 0.00 0.03 0.00 84 1015.9
20260902155617 31 269 1.6 9.7 0.00 0.03 0.00 86 1015.9
20260902155110 31 271 3.2 9.7 0.00 0.03 0.00 86 1015.9
20260902154533 30 263 3.2 9.7 0.00 0.03 0.00 87 1015.9
20260902153959 30 251 4.8 9.7 0.00 0.03 0.00 87 1015.9
20260902153457 30 237 3.2 8.0 0.00 0.03 0.00 88 1015.6
20260902152954 29 268 3.2 9.7 0.00 0.03 0.00 88 1015.6
20260902152419 29 244 3.2 9.7 0.00 0.03 0.00 89 1015.6
20260902151916 29 234 1.6 9.7 0.00 0.03 0.00 89 1015.6
20260902151343 28 256 3.2 9.7 0.00 0.03 0.00 90 1015.6
20260902150839 28 242 3.2 9.7 0.00 0.03 0.00 90 1015.6
20260902150335 28 229 1.6 8.0 0.00 0.03 0.00 90 1015.6
20260902145832 28 267 1.6 8.0 0.00 0.03 0.00 90 1015.6
20260902145330 27 237 1.6 4.8 0.00 0.03 0.00 90 1015.6
20260902144826 27 250 3.2 4.8 0.00 0.03 0.00 91 1015.6
20260902144323 27 253 0.0 4.8 0.00 0.03 0.00 91 1015.6
20260902143820 27 249 3.2 4.8 0.00 0.03 0.00 91 1015.6
20260902143317 27 238 1.6 3.2 0.00 0.03 0.00 91 1015.6
20260902142814 27 155 0.0 0.0 0.00 0.03 0.00 92 1015.6
20260902142311 26 155 0.0 0.0 0.00 0.03 0.00 92 1015.6
20260902141808 26 155 0.0 0.0 0.00 0.03 0.00 92 1015.6
20260902141228 26 155 0.0 0.0 0.00 0.03 0.00 92 1015.6
20260902140725 26 155 0.0 0.0 0.00 0.03 0.00 92 1015.6
20260902140202 26 155 0.0 0.0 0.00 0.03 0.00 92 1015.6
20260902135700 26 155 0.0 0.0 0.00 0.03 0.00 92 1015.6
20260902135157 26 155 0.0 0.0 0.00 0.03 0.00 92 1015.6
20260902134654 26 155 0.0 0.0 0.00 0.03 0.00 92 1015.6
20260902134151 25 155 0.0 0.0 0.00 0.03 0.00 92 1015.6
20260902133648 25 155 0.0 0.0 0.00 0.03 0.00 92 1015.2
20260902133145 25 155 0.0 0.0 0.00 0.03 0.00 92 1015.6
20260902132611 25 155 0.0 0.0 0.00 0.03 0.00 92 1015.6
20260902132050 25 155 0.0 0.0 0.00 0.03 0.00 92 1015.2
20260902131547 25 155 0.0 0.0 0.00 0.03 0.00 92 1015.2
20260902131044 25 155 0.0 0.0 0.00 0.03 0.00 92 1015.2
20260902130540 25 155 0.0 0.0 0.00 0.03 0.00 92 1014.9
20260902130036 25 155 0.0 0.0 0.00 0.03 0.00 92 1015.2
20260902125533 25 155 0.0 0.0 0.00 0.03 0.00 92 1015.2
20260902125030 25 155 0.0 0.0 0.00 0.03 0.00 92 1014.9
20260902124527 25 155 0.0 0.0 0.00 0.03 0.00 91 1014.9
20260902124024 25 155 0.0 0.0 0.00 0.03 0.00 91 1014.9
20260902123521 25 155 0.0 0.0 0.00 0.03 0.00 91 1014.9
20260902123018 25 155 0.0 0.0 0.00 0.03 0.00 91 1014.6
20260902122010 25 155 0.0 0.0 0.00 0.03 0.00 91 1014.2
20260902121436 25 155 0.0 0.0 0.00 0.03 0.00 91 1014.2
20260902120933 25 155 0.0 3.2 0.00 0.03 0.00 92 1014.2
20260902120431 25 155 0.0 4.8 0.00 0.03 0.00 92 1014.2
20260902115926 26 155 0.0 8.0 0.00 0.03 0.00 91 1014.6
20260902115352 26 155 0.0 8.0 0.00 0.03 0.00 92 1014.6
20260902114849 26 157 3.2 8.0 0.00 0.03 0.00 92 1014.6
20260902114347 26 181 1.6 8.0 0.00 0.03 0.00 94 1014.6
20260902113844 26 292 0.0 0.0 0.00 0.03 0.00 93 1014.2
20260902113341 26 292 0.0 0.0 0.00 0.03 0.00 93 1013.9
20260902112837 26 292 0.0 0.0 0.00 0.03 0.00 93 1014.2
20260902112334 26 292 0.0 0.0 0.00 0.03 0.00 93 1014.2
20260902111829 26 292 0.0 0.0 0.00 0.03 0.00 93 1013.9
20260902111326 26 292 0.0 0.0 0.00 0.03 0.00 93 1013.9
20260902110824 26 292 0.0 0.0 0.00 0.03 0.00 93 1013.9
20260902110302 26 292 0.0 0.0 0.00 0.03 0.00 93 1013.9
20260902105744 26 292 0.0 0.0 0.00 0.03 0.00 93 1013.9
20260902105209 26 292 0.0 0.0 0.00 0.03 0.00 93 1013.9
20260902104651 26 292 0.0 0.0 0.00 0.03 0.00 93 1014.2
20260902104116 26 292 0.0 0.0 0.00 0.03 0.00 93 1014.2
20260902103614 26 292 0.0 3.2 0.00 0.03 0.00 93 1014.2
20260902103111 26 292 0.0 3.2 0.00 0.03 0.00 93 1013.9
20260902102549 26 292 0.0 3.2 0.00 0.03 0.00 93 1013.9
20260902102047 26 292 0.0 3.2 0.00 0.03 0.00 93 1013.9
20260902101513 26 302 0.0 1.6 0.00 0.03 0.00 93 1013.9
20260902101010 26 302 1.6 1.6 0.00 0.03 0.00 93 1013.9
20260902100507 26 302 0.0 0.0 0.00 0.03 0.00 92 1013.9
20260902100004 26 302 0.0 0.0 0.00 0.03 0.00 92 1013.9
20260902095501 26 302 0.0 0.0 0.00 0.03 0.00 92 1013.5
20260902094959 26 303 0.0 0.0 0.00 0.03 0.00 92 1013.9
20260902094456 26 303 0.0 0.0 0.00 0.03 0.00 92 1013.9
20260902093952 26 299 0.0 0.0 0.00 0.03 0.00 92 1013.9
20260902093430 26 299 0.0 0.0 0.00 0.03 0.00 92 1013.9
20260902092927 26 299 0.0 0.0 0.00 0.03 0.00 92 1013.9
20260902092353 26 299 0.0 0.0 0.00 0.03 0.00 92 1013.5
20260902091850 26 299 0.0 0.0 0.00 0.03 0.00 92 1013.9
20260902091347 26 299 0.0 0.0 0.00 0.03 0.00 92 1013.5
20260902090844 26 187 0.0 0.0 0.00 0.03 0.00 92 1013.5
20260902090303 26 187 0.0 0.0 0.00 0.03 0.00 92 1013.5
20260902085710 26 187 0.0 0.0 0.00 0.03 0.00 92 1013.5
20260902085207 26 300 0.0 0.0 0.00 0.03 0.00 92 1013.5
20260902084704 26 300 0.0 0.0 0.00 0.03 0.00 92 1013.5
20260902084201 26 301 0.0 0.0 0.00 0.03 0.00 92 1013.5
20260902083658 26 301 0.0 0.0 0.00 0.03 0.00 92 1013.5
20260902083136 26 301 0.0 0.0 0.00 0.03 0.00 92 1013.9
20260902082633 26 301 0.0 0.0 0.00 0.03 0.00 92 1013.9
20260902082110 26 214 0.0 0.0 0.00 0.03 0.00 92 1013.5
20260902081607 26 213 0.0 0.0 0.00 0.03 0.00 92 1013.5
20260902081103 26 299 0.0 0.0 0.00 0.03 0.00 92 1013.9
20260902080543 26 298 0.0 0.0 0.00 0.03 0.00 92 1013.9
20260902075938 26 299 0.0 0.0 0.00 0.03 0.00 92 1013.9
20260902075435 26 329 0.0 1.6 0.00 0.03 0.00 92 1013.9
20260902074932 26 339 0.0 1.6 0.00 0.03 0.00 92 1013.9
20260902074429 26 338 0.0 1.6 0.00 0.03 0.00 92 1013.9
20260902073926 26 338 1.6 1.6 0.00 0.03 0.00 92 1013.9
20260902073423 26 342 1.6 1.6 0.00 0.03 0.00 92 1013.9
20260902072849 26 342 0.0 1.6 0.00 0.03 0.00 92 1013.9
20260902072346 26 342 0.0 1.6 0.00 0.03 0.00 92 1013.9
20260902071843 26 342 0.0 1.6 0.00 0.03 0.00 92 1013.9
20260902071340 26 342 1.6 1.6 0.00 0.03 0.00 92 1013.9
20260902070837 27 342 0.0 1.6 0.00 0.03 0.00 92 1013.9
20260902070334 26 342 0.0 1.6 0.00 0.03 0.00 92 1013.9
20260902065728 27 342 0.0 1.6 0.00 0.03 0.00 92 1013.9
20260902065226 27 342 0.0 1.6 0.00 0.03 0.00 92 1013.9
20260902064723 27 299 1.6 1.6 0.00 0.03 0.00 92 1013.9
20260902064221 26 300 1.6 1.6 0.00 0.03 0.00 92 1013.9
20260902063718 26 300 1.6 1.6 0.00 0.03 0.00 92 1013.9
20260902063144 26 300 1.6 1.6 0.00 0.03 0.00 92 1013.9
20260902062641 26 298 0.0 0.0 0.00 0.03 0.00 92 1013.9
20260902062107 26 298 0.0 0.0 0.00 0.03 0.00 92 1013.9
20260902061603 26 298 0.0 0.0 0.00 0.03 0.00 92 1013.9
20260902061029 26 298 0.0 1.6 0.00 0.03 0.00 91 1013.9
20260902060526 26 298 0.0 1.6 0.00 0.03 0.00 91 1013.9
20260902055953 27 298 0.0 1.6 0.00 0.03 0.00 91 1013.9
20260902055417 27 300 1.6 1.6 0.00 0.03 0.00 91 1013.9
20260902054914 27 298 1.6 1.6 0.00 0.03 0.00 91 1013.9
20260902054410 27 299 1.6 1.6 0.00 0.03 0.00 91 1013.5
20260902053828 27 299 0.0 1.6 0.00 0.03 0.00 91 1013.5
20260902053247 27 299 0.0 1.6 0.00 0.03 0.00 91 1013.9
20260902052744 27 299 0.0 0.0 0.00 0.03 0.00 91 1013.9
20260902052241 27 299 0.0 0.0 0.00 0.03 0.00 91 1013.9
20260902051738 27 299 0.0 0.0 0.00 0.03 0.03 91 1013.9
20260902051235 27 299 0.0 0.0 0.00 0.03 0.03 91 1013.9
20260902050732 27 299 0.0 0.0 0.00 0.03 0.03 91 1013.9
20260902050229 27 299 0.0 0.0 0.00 0.03 0.03 91 1013.9
20260902045726 27 299 0.0 1.6 0.00 0.03 0.03 91 1013.9
20260902045223 27 299 0.0 1.6 0.00 0.03 0.03 91 1013.9
20260902044720 27 299 0.0 1.6 0.00 0.03 0.03 91 1013.9
20260902044216 27 299 1.6 1.6 0.00 0.03 0.03 91 1013.9
20260902043713 27 240 0.0 1.6 0.00 0.03 0.03 91 1013.9
20260902043139 27 240 0.0 1.6 0.00 0.03 0.03 91 1013.9
20260902042636 26 240 0.0 1.6 0.00 0.03 0.03 91 1013.9
20260902042133 26 240 0.0 1.6 0.00 0.03 0.03 91 1013.9
20260902041630 26 240 0.0 1.6 0.00 0.03 0.03 91 1013.9
20260902041127 26 244 0.0 0.0 0.00 0.03 0.03 91 1013.9
20260902040622 26 244 0.0 0.0 0.00 0.03 0.03 91 1013.9
20260902040119 26 244 0.0 0.0 0.00 0.03 0.03 91 1013.9
20260902035616 26 244 0.0 0.0 0.00 0.03 0.03 91 1013.9
20260902035113 26 244 0.0 0.0 0.00 0.03 0.03 91 1013.9
20260902034538 26 244 0.0 0.0 0.00 0.03 0.03 91 1013.9
20260902034017 26 244 0.0 0.0 0.00 0.03 0.03 91 1014.2
20260902033513 26 244 0.0 0.0 0.00 0.03 0.03 90 1013.9
20260902033010 26 244 0.0 0.0 0.00 0.03 0.03 90 1013.9
20260902032507 26 244 0.0 0.0 0.00 0.03 0.03 90 1013.9
20260902032004 26 244 0.0 0.0 0.00 0.03 0.03 90 1013.9
20260902031501 26 244 0.0 0.0 0.00 0.03 0.03 90 1013.9
20260902030958 26 244 0.0 0.0 0.00 0.03 0.03 90 1013.9
20260902030454 26 244 0.0 0.0 0.00 0.03 0.03 90 1013.5
20260902025920 26 244 0.0 0.0 0.00 0.03 0.03 90 1013.5
20260902025417 26 244 0.0 0.0 0.00 0.03 0.03 90 1013.5
20260902024914 26 244 0.0 0.0 0.00 0.03 0.03 90 1013.5
20260902024412 26 244 0.0 0.0 0.00 0.03 0.03 90 1013.5
20260902023837 26 244 0.0 0.0 0.00 0.03 0.03 90 1013.2
20260902023334 26 244 0.0 0.0 0.00 0.03 0.03 90 1013.2
20260902022831 26 244 0.0 0.0 0.00 0.03 0.03 90 1013.2
20260902022328 26 244 0.0 0.0 0.00 0.03 0.03 89 1013.2
20260902021809 26 244 0.0 0.0 0.00 0.03 0.03 89 1013.2
20260902021307 26 244 0.0 0.0 0.00 0.03 0.03 89 1012.9
20260902020713 26 244 0.0 0.0 0.00 0.03 0.03 89 1012.9
20260902020104 26 244 0.0 0.0 0.00 0.03 0.03 89 1012.9
20260902015518 26 244 0.0 0.0 0.00 0.03 0.03 89 1012.9
20260902014944 26 244 0.0 0.0 0.00 0.03 0.03 88 1012.9
20260902014410 26 244 0.0 0.0 0.00 0.03 0.03 88 1012.9
20260902013907 26 244 0.0 0.0 0.00 0.03 0.03 88 1012.5
20260902013404 27 244 0.0 0.0 0.00 0.03 0.03 88 1012.5
20260902012900 27 244 0.0 0.0 0.00 0.03 0.03 88 1012.5
20260902012326 27 244 0.0 0.0 0.00 0.03 0.03 87 1012.5
20260902011823 27 244 0.0 0.0 0.00 0.03 0.03 87 1012.5
20260902010815 27 244 0.0 3.2 0.00 0.03 0.03 87 1012.2
20260902010311 27 244 0.0 6.4 0.00 0.03 0.03 86 1012.5
20260902005646 27 244 0.0 6.4 0.00 0.03 0.03 86 1012.2
20260902005143 27 244 1.6 6.4 0.00 0.03 0.03 86 1012.5
20260902004639 27 263 3.2 8.0 0.00 0.03 0.03 85 1012.5
20260902004137 27 252 1.6 9.7 0.00 0.03 0.03 85 1012.5
20260902003634 27 252 3.2 9.7 0.00 0.03 0.03 85 1012.5
20260902003131 27 302 1.6 9.7 0.00 0.03 0.03 84 1012.5
20260902002628 28 248 6.4 9.7 0.00 0.03 0.03 84 1012.5
20260902002124 28 243 1.6 8.0 0.00 0.03 0.03 85 1012.5
20260902001621 28 234 3.2 8.0 0.00 0.03 0.03 85 1012.5
20260902001118 28 260 3.2 8.0 0.00 0.03 0.03 85 1012.9
20260902000615 28 268 3.2 8.0 0.00 0.03 0.03 84 1012.9
20260902000113 28 254 1.6 8.0 0.00 0.03 0.03 85 1012.9
20260901235542 28 254 3.2 9.7 0.00 0.03 0.03 85 1012.5
20260901235021 28 264 3.2 9.7 0.00 0.03 0.03 84 1012.5
20260901234518 28 247 3.2 9.7 0.00 0.03 0.03 84 1012.9
20260901233956 28 255 3.2 9.7 0.00 0.03 0.03 85 1012.9
20260901233453 28 250 4.8 8.0 0.00 0.03 0.03 86 1012.5
20260901232950 28 290 3.2 8.0 0.00 0.03 0.03 86 1012.5
20260901232447 28 266 3.2 8.0 0.00 0.03 0.03 86 1012.9
20260901231926 28 248 3.2 8.0 0.00 0.03 0.03 86 1012.9
20260901231423 28 298 1.6 6.4 0.00 0.03 0.03 86 1012.9
20260901230920 28 262 0.0 4.8 0.00 0.03 0.03 87 1012.9
20260901230241 28 263 0.0 4.8 0.00 0.03 0.03 87 1012.9
20260901225706 28 300 3.2 6.4 0.00 0.03 0.03 87 1012.9
20260901225202 28 257 1.6 6.4 0.00 0.03 0.03 86 1013.2
20260901224700 28 258 3.2 6.4 0.00 0.03 0.03 86 1013.2
20260901224157 28 57 1.6 9.7 0.00 0.03 0.03 86 1013.2
20260901223653 28 78 1.6 9.7 0.00 0.03 0.03 85 1013.2
20260901223150 29 307 1.6 9.7 0.00 0.03 0.03 85 1013.2
20260901222647 29 265 3.2 6.4 0.00 0.03 0.03 85 1012.9
20260901222144 29 273 3.2 11.3 0.00 0.03 0.03 86 1012.9
20260901221641 29 272 1.6 11.3 0.00 0.03 0.03 86 1012.9
20260901221138 29 272 3.2 11.3 0.00 0.03 0.03 86 1012.9
20260901220635 29 252 4.8 11.3 0.00 0.03 0.03 85 1012.9
20260901220113 29 254 3.2 9.7 0.00 0.03 0.03 85 1012.9
20260901215547 29 257 4.8 9.7 0.00 0.03 0.03 85 1012.9